Flag for China Weather past 2 weeks in Suzhou, Jiangsu, China

68 °F


Feels Like: 68 °F
Forecast: 59 / 74 °F
Wind: 3 mph from West

Location: Shanghai Hongqiao Airport

Current Time: Oct 9, 2015 at 8:26:34 PM

Latest Report: Oct 9, 2015 at 8:00 PM

Visibility: 10 mi

Pressure: 29.98 "Hg

Humidity: 73%

Dew point: 59 °F

Location of SuzhouLocation

Historic Weather in Suzhou — Graph


Suzhou temperature yesterday

Maximum temperature yesterday: 70 °F (at 12:00 AM)
Minimum temperature yesterday: 66 °F (at 1:00 AM)
Average temperature yesterday: 68 °F

Past Weeks' High & Low Weather Summary

High86 °F (Sep 30, 2:30 PM)100% (Sep 29, 5:00 PM)30.24 "Hg (Sep 29, 5:00 PM)
Low59 °F (Oct 2, 5:00 AM)39% (Oct 2, 1:00 PM)29.71 "Hg (Sep 25, 2:00 AM)
Average73 °F76%29.98 "Hg
* Reported Sep 24 7:00 PM — Oct 9 7:30 PM, Suzhou, Weather by CustomWeather, © 2015

Note: Actual official high and low records may vary slightly from our data, if they occured in-between our weather recording intervals... More about our weather records


Suzhou weather history for previous 24 hours

Time TempWeatherWind HumidityBarometerVisibility
7:30 PM
Fri, Oct 9
68 °FPassing clouds.3 mph73%29.95 "HgN/A
7:00 PM68 °FPassing clouds.3 mph73%29.95 "HgN/A
6:30 PM70 °FPassing clouds.6 mph69%29.95 "HgN/A
6:00 PM70 °FClear.6 mph69%29.95 "Hg4 mi
5:30 PM70 °FClear.6 mph69%29.95 "Hg4 mi
5:00 PM72 °FPassing clouds.6 mph65%29.92 "Hg4 mi
4:30 PM73 °FPassing clouds.6 mph61%29.92 "Hg4 mi
4:00 PM73 °FPassing clouds.8 mph61%29.92 "HgN/A
3:30 PM73 °FPassing clouds.8 mph57%29.92 "HgN/A
3:00 PM75 °FPassing clouds.8 mph57%29.92 "HgN/A
2:30 PM77 °FPassing clouds.6 mph54%29.92 "HgN/A
2:00 PM77 °FPassing clouds.6 mph54%29.95 "HgN/A
1:30 PM75 °FPassing clouds.6 mph57%29.95 "HgN/A
1:00 PM75 °FScattered clouds.10 mph57%29.95 "HgN/A
12:30 PM73 °FScattered clouds.6 mph57%29.98 "HgN/A
12:00 PM75 °FScattered clouds.6 mph57%29.98 "HgN/A
11:30 AM73 °FPartly sunny.8 mph61%30.01 "HgN/A
11:00 AM75 °FPartly sunny.6 mph61%30.01 "HgN/A
10:30 AM72 °FScattered clouds.6 mph69%30.01 "HgN/A
10:00 AM72 °FScattered clouds.8 mph69%30.01 "HgN/A
9:30 AM72 °FClear.10 mph69%30.01 "Hg5 mi
9:00 AM70 °FClear.10 mph73%30.01 "Hg4 mi
8:30 AM70 °FFog.8 mph78%30.01 "Hg3 mi
8:00 AM66 °FFog.6 mph88%30.01 "Hg2 mi
7:30 AM64 °FFog.6 mph94%30.01 "Hg2 mi
7:00 AM64 °FFog.3 mph88%30.01 "Hg2 mi
6:30 AM63 °FFog.3 mph94%29.98 "Hg2 mi
6:00 AM63 °FFog.6 mph94%29.98 "Hg3 mi
5:30 AM63 °FClear.6 mph94%29.98 "Hg4 mi
5:00 AM63 °FClear.6 mph94%29.98 "Hg10 mi
4:30 AM63 °FClear.6 mph94%29.98 "Hg10 mi
4:00 AM63 °FClear.3 mph94%29.98 "Hg10 mi
3:30 AM64 °FClear.6 mph88%29.98 "Hg10 mi
3:00 AM64 °FClear.3 mph88%29.98 "Hg10 mi
2:30 AM64 °FClear.6 mph88%29.98 "Hg10 mi
2:00 AM64 °FClear.3 mph88%29.98 "Hg10 mi
1:30 AM64 °FPassing clouds.3 mph88%30.01 "HgN/A
1:00 AM64 °FClear.6 mph88%30.01 "Hg10 mi
12:30 AM64 °FClear.6 mph88%30.01 "Hg10 mi
12:00 AM66 °FClear.8 mph83%30.01 "Hg10 mi
11:30 PM
Thu, Oct 8
66 °FClear.10 mph83%30.01 "Hg10 mi
11:00 PM66 °FClear.8 mph83%30.01 "Hg10 mi
10:30 PM66 °FClear.10 mph83%30.01 "Hg10 mi
10:00 PM66 °FClear.6 mph83%30.01 "Hg10 mi
9:30 PM66 °FClear.8 mph83%30.01 "Hg10 mi
9:00 PM68 °FPassing clouds.8 mph78%30.04 "HgN/A
8:30 PM68 °FPassing clouds.8 mph78%30.04 "HgN/A
8:00 PM68 °FPassing clouds.8 mph78%30.01 "HgN/A
Weather by CustomWeather, © 2015

See weather overviewHow to use our weather pages